Weather History for KPHF - July, 2014

Change the Weather History Date:

Thursday, July 17, 2014

  Actual Average Record
Temperature  
Mean Temperature 76 °F -  
Max Temperature 87 °F 88 °F 99 °F (1980)
Min Temperature 66 °F 70 °F 61 °F (1978)
Cooling Degree Days 11    
Growing Degree Days 26 (Base 50)    
Moisture  
Dew Point 62 °F    
Average Humidity 63    
Maximum Humidity 84    
Minimum Humidity 43    
Precipitation  
Precipitation 0.00 in - - ()
Sea Level Pressure  
Sea Level Pressure 30.02 in    
Wind  
Wind Speed 4 mph (NNE)    
Max Wind Speed 10 mph    
Max Gust Speed -    
Visibility 10 miles    
Events      
Averages and records for this station are not official NWS values.
T = Trace of Precipitation, MM = Missing Value Source: NWS Daily Summary

Daily Weather History Graph

Daily Weather History Graph

Search for Another Location

Airport or City:

Trip Planner

Search our weather history database for the weather conditions in past years. The results will help you decide how hot, cold, wet, or windy it might be!

Date:

Astronomy

Jul. 17, 2014 Rise Set
Actual Time 5:59 AM EDT 8:24 PM EDT
Civil Twilight 5:29 AM EDT 8:54 PM EDT
Nautical Twilight 4:52 AM EDT 9:31 PM EDT
Astronomical Twilight 4:11 AM EDT 10:12 PM EDT
Moon 11:53 PM EDT (7/17) 11:58 AM EDT (7/17)
Length of Visible Light 15h 25m
Length of Day
14h 25m
Waning Gibbous, 66% of the Moon is Illuminated
Jul 17
Waning Gibbous
Jul 18
Last Quarter
Jul 26
New
Aug 3
First Quarter
Aug 10
Full

Hourly Weather History & Observations

Time (EDT) Temp. Heat Index Dew Point Humidity Pressure Visibility Wind Dir Wind Speed Gust Speed Precip Events Conditions
12:54 AM 72.0 °F - 64.0 °F 76% 29.92 in 9.0 mi North 4.6 mph - N/A   Clear
1:54 AM 71.1 °F - 63.0 °F 75% 29.92 in 10.0 mi Calm Calm - N/A   Clear
2:54 AM 70.0 °F - 63.0 °F 78% 29.92 in 10.0 mi NNW 5.8 mph - N/A   Clear
3:54 AM 69.1 °F - 62.1 °F 78% 29.93 in 10.0 mi North 5.8 mph - N/A   Clear
4:54 AM 66.0 °F - 61.0 °F 84% 29.94 in 10.0 mi North 3.5 mph - N/A   Clear
5:54 AM 66.9 °F - 61.0 °F 81% 29.96 in 10.0 mi North 5.8 mph - N/A   Partly Cloudy
6:54 AM 69.1 °F - 61.0 °F 75% 29.98 in 10.0 mi Calm Calm - N/A   Clear
7:54 AM 73.4 °F - 62.6 °F 69% 30.00 in 10.0 mi North 4.6 mph - N/A   Clear
8:54 AM 77.0 °F - 61.0 °F 58% 30.01 in 10.0 mi North 5.8 mph - N/A   Clear
9:54 AM 80.1 °F 81.2 °F 62.1 °F 54% 30.03 in 10.0 mi North 4.6 mph - N/A   Clear
10:54 AM 82.9 °F 83.7 °F 62.1 °F 49% 30.04 in 10.0 mi NW 5.8 mph - N/A   Clear
11:54 AM 84.0 °F 84.4 °F 61.0 °F 46% 30.03 in 10.0 mi Calm Calm - N/A   Clear
12:54 PM 84.9 °F 84.8 °F 60.1 °F 43% 30.03 in 10.0 mi NE 3.5 mph - N/A   Mostly Cloudy
1:54 PM 84.9 °F 85.4 °F 62.1 °F 46% 30.03 in 10.0 mi Variable 4.6 mph - N/A   Mostly Cloudy
2:54 PM 86.0 °F 86.3 °F 62.1 °F 44% 30.03 in 10.0 mi North 5.8 mph - N/A   Scattered Clouds
3:54 PM 82.9 °F 84.0 °F 63.0 °F 51% 30.04 in 10.0 mi East 5.8 mph - N/A   Scattered Clouds
4:54 PM 84.0 °F 84.9 °F 63.0 °F 49% 30.04 in 10.0 mi ENE 10.4 mph - N/A   Partly Cloudy
5:54 PM 82.9 °F 83.7 °F 62.1 °F 49% 30.04 in 10.0 mi ENE 6.9 mph - N/A   Clear
6:54 PM 81.0 °F 82.2 °F 63.0 °F 54% 30.05 in 10.0 mi NE 5.8 mph - N/A   Clear
7:54 PM 79.0 °F - 63.0 °F 58% 30.07 in 10.0 mi NE 4.6 mph - N/A   Clear
8:54 PM 73.9 °F - 64.9 °F 73% 30.08 in 10.0 mi North 3.5 mph - N/A   Clear
9:54 PM 71.1 °F - 64.0 °F 78% 30.10 in 10.0 mi Calm Calm - N/A   Clear
10:54 PM 71.1 °F - 63.0 °F 75% 30.11 in 10.0 mi NNE 3.5 mph - N/A   Clear
11:54 PM 69.1 °F - 62.1 °F 78% 30.13 in 10.0 mi Calm Calm - N/A   Clear